FW1241 Weather Reports


Display with metric or nautical units.
time (UTC)temp
F
wind
direction
speed
MPH
gust
MPH
rain 1hr
in
rain 24hr
in
rain mn
in
humidity
%
barometer
mb
20260905102105 63 245 1.0 2.0 0.00 0.00 0.00 71 1012.6
20260905101605 63 144 1.0 2.0 0.00 0.00 0.00 69 1012.5
20260905100605 64 203 2.0 2.0 0.00 0.00 0.00 68 1012.6
20260905100106 64 207 1.0 2.0 0.00 0.00 0.00 69 1012.6
20260905095106 64 221 1.0 2.0 0.00 0.00 0.00 68 1012.4
20260905094105 65 209 2.0 3.0 0.00 0.00 0.00 68 1012.4
20260905093605 65 212 1.0 2.0 0.00 0.00 0.00 68 1012.4
20260905093105 65 210 1.0 3.0 0.00 0.00 0.00 67 1012.4
20260905092105 65 197 1.0 7.0 0.00 0.00 0.00 66 1012.4
20260905091105 65 157 1.0 3.0 0.00 0.00 0.00 66 1012.5
20260905090105 65 98 2.0 5.0 0.00 0.00 0.00 66 1012.4
20260905085605 65 200 2.0 5.0 0.00 0.00 0.00 67 1012.5
20260905084605 65 209 2.0 3.0 0.00 0.00 0.00 68 1012.6
20260905083105 65 193 1.0 2.0 0.00 0.00 0.00 73 1012.8
20260905082605 65 211 1.0 2.0 0.00 0.00 0.00 73 1012.8
20260905081605 65 206 2.0 2.0 0.00 0.00 0.00 72 1012.8
20260905080605 65 167 1.0 2.0 0.00 0.00 0.00 71 1012.8
20260905075605 65 165 1.0 2.0 0.00 0.00 0.00 72 1012.8
20260905074105 66 167 2.0 2.0 0.00 0.00 0.00 73 1012.8
20260905073605 66 109 2.0 2.0 0.00 0.00 0.00 72 1012.7
20260905072605 67 164 2.0 2.0 0.00 0.00 0.00 71 1012.7
20260905071605 67 99 2.0 2.0 0.00 0.00 0.00 68 1012.7
20260905070605 67 332 1.0 1.0 0.00 0.00 0.00 67 1012.6
20260905065605 68 145 1.0 2.0 0.00 0.00 0.00 67 1012.5
20260905064105 67 283 1.0 1.0 0.00 0.00 0.00 68 1012.3
20260905063605 67 130 1.0 2.0 0.00 0.00 0.00 68 1012.3
20260905063105 67 70 2.0 3.0 0.00 0.00 0.00 68 1012.3
20260905062606 67 202 1.0 2.0 0.00 0.00 0.00 69 1012.3
20260905062105 68 306 1.0 2.0 0.00 0.00 0.00 70 1012.2
20260905060605 68 311 1.0 2.0 0.00 0.00 0.00 68 1012.2
20260905060105 68 290 1.0 2.0 0.00 0.00 0.00 67 1012.1
20260905055605 68 286 1.0 2.0 0.00 0.00 0.00 68 1012.1
20260905052105 70 296 1.0 2.0 0.00 0.00 0.00 67 1012.0
20260905050105 71 199 1.0 2.0 0.00 0.00 0.00 63 1011.9
20260905045605 71 193 1.0 2.0 0.00 0.00 0.00 64 1011.9
20260905045105 71 205 1.0 2.0 0.00 0.00 0.00 63 1011.9
20260905044605 72 196 1.0 2.0 0.00 0.00 0.00 63 1011.9
20260905043605 72 159 1.0 1.0 0.00 0.00 0.00 61 1011.8
20260905042606 73 117 1.0 1.0 0.00 0.00 0.00 60 1011.7
20260905041105 73 95 1.0 1.0 0.00 0.00 0.00 60 1011.5
20260905040106 73 11 1.0 1.0 0.00 0.00 0.00 59 1011.5
20260905035605 73 38 1.0 1.0 0.00 0.00 0.00 59 1011.5
20260905035105 74 27 1.0 1.0 0.00 0.00 0.00 59 1011.5
20260905033605 74 20 1.0 1.0 0.00 0.00 0.00 57 1011.3
20260905032606 74 339 1.0 1.0 0.00 0.00 0.00 57 1011.2
20260905031606 74 344 1.0 1.0 0.00 0.00 0.00 56 1011.1
20260905030105 75 353 1.0 2.0 0.00 0.00 0.00 55 1010.9
20260905023605 77 87 1.0 3.0 0.00 0.00 0.00 53 1010.7
20260905023106 78 235 1.0 3.0 0.00 0.00 0.00 52 1010.7
20260905022605 78 247 1.0 2.0 0.00 0.00 0.00 51 1010.7
20260905020105 80 253 1.0 2.0 0.00 0.00 0.00 50 1010.6
20260905015605 80 220 1.0 2.0 0.00 0.00 0.00 50 1010.7
20260905015105 80 267 1.0 3.0 0.00 0.00 0.00 49 1010.7
20260905014605 81 229 1.0 2.0 0.00 0.00 0.00 47 1010.6
20260905014105 81 244 1.0 2.0 0.00 0.00 0.00 47 1010.6
20260905013605 81 322 1.0 3.0 0.00 0.00 0.00 47 1010.7
20260905012605 82 318 2.0 3.0 0.00 0.00 0.00 45 1010.6
20260905012105 82 264 2.0 3.0 0.00 0.00 0.00 46 1010.7
20260905011604 83 282 2.0 3.0 0.00 0.00 0.00 45 1010.6
20260905005105 85 340 2.0 3.0 0.00 0.00 0.00 42 1010.6
20260905003605 85 331 1.0 3.0 0.00 0.00 0.00 41 1010.6
20260905001105 86 334 2.0 3.0 0.00 0.00 0.00 42 1010.6
20260905000605 85 75 2.0 3.0 0.00 0.00 0.00 42 1010.6
20260905000105 86 343 2.0 3.0 0.00 0.00 0.00 42 1010.6
20260904234605 85 338 2.0 5.0 0.00 0.00 0.00 44 1010.7
20260904234105 85 2 2.0 5.0 0.00 0.00 0.00 44 1010.7
20260904233105 85 351 2.0 3.0 0.00 0.00 0.00 43 1010.8
20260904232605 85 349 2.0 3.0 0.00 0.00 0.00 44 1010.7
20260904232105 85 317 2.0 3.0 0.00 0.00 0.00 43 1010.5
20260904231605 85 328 2.0 3.0 0.00 0.00 0.00 45 1010.8
20260904231105 85 344 2.0 6.0 0.00 0.00 0.00 44 1010.9
20260904230605 85 336 2.0 5.0 0.00 0.00 0.00 44 1010.9
20260904230105 85 322 1.0 3.0 0.00 0.00 0.00 45 1010.9
20260904223605 84 343 2.0 6.0 0.00 0.00 0.00 47 1011.2
20260904221605 84 340 2.0 3.0 0.00 0.00 0.00 48 1011.4
20260904220605 84 332 2.0 3.0 0.00 0.00 0.00 47 1011.4
20260904220105 84 312 1.0 3.0 0.00 0.00 0.00 46 1011.5
20260904215605 83 103 1.0 3.0 0.00 0.00 0.00 47 1011.7
20260904215105 83 304 2.0 3.0 0.00 0.00 0.00 48 1011.8
20260904214605 83 352 2.0 5.0 0.00 0.00 0.00 49 1011.8
20260904214105 82 333 2.0 5.0 0.00 0.00 0.00 48 1011.9
20260904213605 83 317 2.0 6.0 0.00 0.00 0.00 47 1011.9
20260904213104 83 325 2.0 5.0 0.00 0.00 0.00 49 1011.9
20260904211105 82 9 2.0 5.0 0.00 0.00 0.00 48 1012.2
20260904205105 81 301 3.0 5.0 0.00 0.00 0.00 51 1012.4
20260904203105 81 345 2.0 5.0 0.00 0.00 0.00 51 1012.6
20260904194605 80 306 2.0 3.0 0.00 0.00 0.00 53 1012.8
20260904193604 80 17 2.0 5.0 0.00 0.00 0.00 54 1012.9
20260904191605 79 322 2.0 5.0 0.00 0.00 0.00 55 1013.4
20260904191105 78 181 1.0 3.0 0.00 0.00 0.00 57 1013.4
20260904190105 78 323 2.0 5.0 0.00 0.00 0.00 58 1013.5
20260904185105 77 347 2.0 3.0 0.00 0.00 0.00 57 1013.6
20260904184105 76 76 2.0 3.0 0.00 0.00 0.00 60 1013.7
20260904183605 76 165 1.0 5.0 0.00 0.00 0.00 60 1013.7
20260904183105 75 185 2.0 6.0 0.00 0.00 0.00 60 1013.7
20260904182606 73 190 2.0 6.0 0.00 0.00 0.00 64 1013.7
20260904173105 73 126 2.0 5.0 0.00 0.00 0.00 65 1013.6
20260904172604 72 171 1.0 5.0 0.00 0.00 0.00 66 1013.6
20260904171104 70 171 3.0 9.0 0.00 0.00 0.00 69 1013.6
20260904165104 69 178 3.0 8.0 0.00 0.00 0.00 70 1013.6
20260904163604 69 172 2.0 7.0 0.00 0.00 0.00 71 1013.5
20260904162105 68 196 2.0 5.0 0.00 0.00 0.00 70 1013.4
20260904161604 68 189 3.0 7.0 0.00 0.00 0.00 71 1013.4
20260904161105 67 187 3.0 6.0 0.00 0.00 0.00 71 1013.4
20260904160605 66 172 3.0 6.0 0.00 0.00 0.00 73 1013.4
20260904155605 66 180 3.0 8.0 0.00 0.00 0.00 74 1013.5
20260904155105 65 136 4.0 8.0 0.00 0.00 0.00 75 1013.5
20260904154604 65 186 3.0 7.0 0.00 0.00 0.00 75 1013.4
20260904154104 65 183 4.0 8.0 0.00 0.00 0.00 74 1013.4
20260904153104 64 135 2.0 6.0 0.00 0.00 0.00 75 1013.3
20260904150104 61 152 3.0 3.0 0.00 0.00 0.00 77 1013.3
20260904145604 60 176 2.0 3.0 0.00 0.00 0.00 78 1013.3
20260904144605 60 46 1.0 1.0 0.00 0.00 0.00 81 1013.1
20260904144104 59 48 1.0 3.0 0.00 0.00 0.00 81 1013.1
20260904143605 59 47 1.0 3.0 0.00 0.00 0.00 82 1013.0
20260904143104 58 53 1.0 2.0 0.00 0.00 0.00 83 1013.0
20260904142604 58 54 1.0 2.0 0.00 0.00 0.00 83 1013.0
20260904142105 58 59 1.0 2.0 0.00 0.00 0.00 84 1012.9
20260904141605 57 83 1.0 2.0 0.00 0.00 0.00 84 1012.8
20260904140604 57 62 1.0 2.0 0.00 0.00 0.00 84 1012.7
20260904140105 57 72 1.0 1.0 0.00 0.00 0.00 84 1012.6
20260904134104 57 69 1.0 1.0 0.00 0.00 0.00 84 1012.4
20260904133605 57 73 1.0 2.0 0.00 0.00 0.00 84 1012.4
20260904131604 58 72 1.0 2.0 0.00 0.00 0.00 83 1012.2
20260904131105 58 93 1.0 3.0 0.00 0.00 0.00 83 1012.1
20260904130104 58 149 2.0 3.0 0.00 0.00 0.00 82 1012.0
20260904124604 59 170 2.0 3.0 0.00 0.00 0.00 82 1011.7
20260904123604 59 146 1.0 3.0 0.00 0.00 0.00 82 1011.6
20260904121605 59 87 2.0 2.0 0.00 0.00 0.00 82 1011.7
20260904114104 59 141 1.0 2.0 0.00 0.00 0.00 82 1011.5
20260904113605 60 85 2.0 2.0 0.00 0.00 0.00 81 1011.5
20260904113104 60 71 2.0 2.0 0.00 0.00 0.00 82 1011.4
20260904104604 60 134 1.0 2.0 0.00 0.00 0.00 82 1011.3
20260904104105 60 124 1.0 2.0 0.00 0.00 0.00 82 1011.2
20260904103104 60 120 1.0 2.0 0.00 0.00 0.00 82 1011.2
20260904102604 61 120 1.0 1.0 0.00 0.00 0.00 82 1011.2